RH
17 17 18 19 22 29 38 45 49 53 58 62 64 64 63 61 58 54 49 46 43 40 39 36 36 39 43 46 48 49 50 49 47 45 44 44 45 47 48 49 50 51 51 54 57 60 63 66 67 65 63 60 56 53 50 46 41 37 33 30 29 29 32
17 17 17 17 17 21 29 36 42 47 52 57 62 66 67 67 66 63 60 57 53 50 48 47 47 50 55 60 62 64 65 65 64 61 57 53 52 52 53 53 55 56 56 57 61 65 67 69 70 68 65 61 56 53 49 45 41 37 33 31 30 31 34
22 22 21 21 20 20 23 27 34 41 47 52 59 65 69 72 71 70 68 65 63 60 58 57 58 61 67 71 73 75 77 78 78 77 74 71 68 65 63 61 61 62 63 64 66 70 72 73 73 70 65 60 55 52 48 45 41 38 35 32 32 34 36
29 28 27 26 26 25 25 26 29 34 38 43 49 57 65 71 74 74 73 72 71 70 68 67 68 71 75 78 80 82 83 84 86 88 89 89 86 83 79 75 72 71 71 71 73 76 78 78 76 71 65 59 54 50 47 44 41 39 37 36 37 38 38
35 36 35 33 33 32 31 31 32 32 33 34 38 43 50 57 63 68 73 77 78 78 76 75 75 76 78 80 82 84 87 90 93 96 98 98 97 95 92 88 85 82 80 80 80 81 83 81 77 71 64 58 53 50 47 45 42 40 40 40 40 41 42
39 41 41 41 40 40 39 39 38 37 37 37 37 38 40 43 47 53 60 68 76 81 82 82 81 80 79 80 81 84 89 95 99 100 100 100 100 99 97 95 93 90 89 88 88 87 86 82 77 71 64 58 54 50 47 45 43 43 43 44 44 45 46
40 42 43 44 44 44 44 44 44 43 43 43 42 42 42 43 43 45 47 52 60 69 76 81 86 87 86 85 86 89 95 99 101 100 100 100 100 100 99 98 98 97 96 96 95 92 87 82 77 71 64 59 55 52 49 48 46 44 45 48 50 52 53
40 40 41 41 41 42 42 42 42 42 42 42 42 42 42 42 42 43 43 44 47 52 60 68 78 87 93 95 96 97 100 101 100 100 100 100 100 100 100 100 100 100 100 100 99 95 89 83 77 71 65 60 57 54 52 53 52 48 48 52 54 56 58
43 43 42 42 42 42 42 42 42 42 42 42 41 41 41 41 41 41 42 43 44 46 50 55 65 80 93 99 100 100 100 100 100 100 100 100 100 100 100 100 100 100 100 100 99 95 90 83 76 70 65 60 58 57 56 57 57 56 56 58 59 60 61
45 45 45 45 45 44 44 44 44 44 44 44 43 44 44 44 44 44 45 46 46 48 50 54 64 81 94 99 100 100 100 100 100 100 100 100 100 100 100 100 100 100 100 100 98 93 88 82 75 70 66 61 60 60 60 61 63 64 63 64 64 64 64
46 46 46 46 46 46 46 45 45 46 46 47 47 48 48 49 50 51 52 52 53 55 57 62 75 90 98 100 100 100 100 100 100 100 100 100 100 100 100 100 99 99 99 98 94 89 85 79 73 70 67 64 63 63 64 66 68 68 68 69 69 67 65
46 46 45 45 45 44 44 44 44 45 46 47 49 50 52 54 56 57 60 61 64 67 71 79 90 98 100 100 100 100 100 100 100 100 100 100 100 100 100 99 98 97 96 93 90 87 82 79 76 73 70 69 68 68 69 71 72 71 71 71 70 67 65
44 43 42 41 41 41 40 40 41 43 44 46 49 52 55 58 59 62 65 70 75 81 88 95 100 101 100 100 100 99 100 100 100 100 100 100 100 100 99 99 97 95 93 90 88 85 82 81 80 76 73 73 73 73 74 75 75 74 73 72 70 67 66
40 39 38 38 38 37 37 38 40 42 45 48 53 57 61 64 67 70 72 77 83 91 98 101 101 100 100 100 100 100 100 100 100 100 100 100 100 99 99 98 96 95 93 90 88 85 82 81 81 79 77 77 78 78 79 79 78 76 75 73 71 68 64
36 36 36 36 36 36 36 38 40 44 49 53 59 66 67 67 73 80 81 84 90 96 100 101 100 100 100 100 100 100 100 100 100 100 100 100 100 100 98 95 93 93 93 91 90 88 83 81 81 80 79 81 83 83 83 82 80 78 77 74 71 67 62
35 35 35 36 37 37 37 40 43 47 53 57 63 73 73 65 70 82 88 89 95 99 101 101 100 100 100 100 100 100 100 100 100 100 100 101 100 99 96 92 92 93 93 92 92 90 88 86 85 84 84 85 86 86 85 84 81 79 77 73 69 66 61
35 35 36 38 40 41 40 43 47 50 55 59 66 79 83 73 70 82 93 97 99 100 100 100 100 100 100 100 100 100 100 100 100 100 101 101 101 99 96 93 95 97 97 97 96 94 92 91 88 87 88 88 88 87 86 85 82 79 77 73 68 65 59
35 37 39 40 43 45 45 46 50 54 60 65 73 85 93 88 82 86 94 100 101 101 100 100 100 100 100 100 100 100 100 100 100 101 100 100 100 98 94 94 98 101 101 101 100 97 94 92 90 90 89 88 89 90 88 86 82 79 76 72 67 62 57
40 42 45 46 48 50 51 51 55 61 68 75 82 91 99 98 92 89 91 95 97 99 100 101 101 101 100 100 100 100 100 100 101 101 100 99 97 93 89 92 96 96 95 95 95 95 94 94 95 96 94 92 93 93 90 86 83 79 74 69 64 59 55
49 50 52 53 53 55 56 57 59 66 74 81 87 95 102 103 97 90 88 90 92 93 95 96 99 102 102 101 100 100 100 100 100 101 101 100 96 91 88 89 88 86 86 87 89 91 93 95 96 98 97 96 96 95 92 88 84 79 73 67 62 59 56
56 56 57 57 57 57 59 60 62 66 75 84 92 98 102 102 99 92 87 86 87 88 90 91 94 99 102 103 102 101 101 101 100 101 101 99 93 88 85 84 83 83 86 88 88 89 91 94 97 98 97 97 97 95 93 90 84 77 71 66 63 60 57
59 60 61 60 60 60 61 63 65 68 75 87 97 101 101 101 101 96 89 85 85 86 89 92 94 99 102 103 102 101 101 102 102 102 101 98 95 93 91 90 88 87 87 88 89 90 90 91 94 96 96 96 97 95 93 89 82 76 70 66 63 62 61
62 63 63 63 62 62 62 65 70 74 81 92 100 101 100 100 101 99 94 92 92 93 94 96 97 99 101 101 102 102 102 102 102 102 101 100 100 100 98 97 95 92 90 90 92 94 93 93 95 97 96 95 95 94 91 86 80 75 70 68 67 68 68
64 64 64 63 63 64 64 65 71 81 91 98 101 101 100 100 100 100 98 97 98 99 99 98 99 100 101 102 101 102 102 102 100 101 102 103 102 101 100 100 100 98 97 96 95 94 93 92 94 97 98 97 95 92 89 86 81 76 74 73 73 74 73
63 63 63 62 61 63 66 66 69 82 97 103 101 100 100 100 100 100 99 98 100 101 101 101 102 101 101 102 101 101 102 101 101 101 102 104 103 101 100 100 100 102 102 101 99 97 95 93 93 95 96 97 95 93 91 88 83 79 78 78 78 77 75
62 61 61 62 60 60 64 65 65 76 94 104 103 101 101 100 99 100 100 100 100 101 101 101 103 102 102 102 102 102 101 101 100 99 99 99 99 98 100 101 99 100 102 102 101 102 101 100 100 99 98 98 97 95 92 88 85 83 82 81 79 77 74
59 59 58 59 59 59 62 64 63 69 86 101 104 101 100 101 100 100 100 100 100 100 100 101 101 101 100 99 99 100 100 100 98 95 93 93 92 94 100 103 101 100 101 100 101 103 104 104 103 101 101 101 101 98 94 90 87 86 85 83 80 75 72
56 57 56 56 56 56 58 61 62 63 76 93 103 104 101 101 101 100 100 100 100 100 100 100 100 100 100 99 99 99 99 98 97 94 92 92 92 92 98 103 103 101 100 100 102 104 104 104 103 102 103 103 102 99 96 92 90 89 87 83 79 74 70
52 54 56 57 57 56 56 57 60 61 64 75 91 101 103 102 103 102 101 100 100 100 101 100 100 100 100 101 99 96 94 95 96 97 96 95 94 94 97 102 105 103 100 100 103 105 104 102 102 102 103 103 101 99 98 95 92 91 88 83 77 73 70
53 54 56 58 59 60 59 57 59 63 63 64 73 86 94 99 102 104 105 104 102 101 100 98 97 97 97 97 96 93 92 94 96 98 98 97 96 96 97 102 106 104 102 101 103 105 105 103 101 101 102 102 100 100 99 97 94 91 87 81 76 73 71
57 58 58 58 58 59 60 59 58 61 63 62 62 68 77 86 92 98 102 104 104 101 98 95 95 94 94 94 93 92 92 94 96 97 97 96 96 96 98 102 105 105 104 103 103 105 105 103 102 102 102 101 101 100 99 97 95 90 84 79 75 72 71
62 62 62 62 62 61 61 62 61 61 63 64 62 61 64 71 80 88 95 99 99 96 94 93 93 93 94 94 94 93 94 96 97 96 95 94 94 94 98 102 105 105 104 102 103 105 105 104 104 104 103 102 101 99 97 95 92 86 81 76 74 73 72
68 68 68 68 70 71 72 73 73 71 72 74 75 73 71 72 76 82 88 89 87 86 90 92 91 91 94 97 96 95 94 95 96 96 95 94 92 93 97 102 105 104 102 101 102 104 106 107 106 105 104 102 100 98 96 93 88 83 78 75 73 74 76
75 77 77 77 79 82 85 87 86 85 83 82 83 85 86 87 87 88 90 88 82 80 85 93 95 94 95 95 94 93 92 93 94 96 97 95 93 92 95 101 105 105 103 102 102 103 105 106 106 104 103 102 99 98 96 92 87 82 78 75 74 76 80
81 84 87 87 86 87 90 92 92 91 90 89 87 87 88 90 90 91 93 95 92 88 86 90 94 97 97 96 94 93 93 92 93 95 97 97 97 96 96 99 104 106 105 104 102 101 103 105 105 104 103 102 100 99 95 91 87 82 78 76 77 79 84
88 89 91 91 89 88 88 89 89 90 90 91 92 93 93 91 89 87 89 93 97 98 96 93 94 96 98 98 97 95 95 95 95 96 98 100 102 102 101 100 102 104 105 104 103 103 104 105 104 103 102 102 101 99 95 91 87 82 80 81 83 87 89
Wind_Speed
40 40 41 41 40 40 41 43 44 46 48 50 52 53 54 55 56 57 57 57 56 56 56 56 55 54 53 52 51 51 51 51 51 51 52 52 52 53 53 53 54 54 53 52 52 51 50 49 49 49 49 48 47 47 46 46 46 46 46 46 47 47 49
42 43 44 45 45 44 43 44 45 46 47 49 50 51 53 54 55 56 57 58 58 57 57 57 57 56 55 54 53 53 52 52 52 52 53 53 53 54 54 55 55 55 54 53 53 52 52 50 49 49 48 47 47 46 46 46 46 47 47 47 47 48 49
42 44 45 46 47 47 46 46 47 48 48 49 50 50 51 52 53 55 56 57 57 57 57 57 57 57 56 55 55 54 54 53 53 54 54 54 55 55 55 55 55 56 56 55 55 54 53 51 50 49 48 47 46 45 46 46 47 48 48 48 48 49 50
41 43 44 45 46 46 47 47 48 49 50 50 51 51 51 52 53 54 55 55 56 56 57 58 58 57 57 56 56 56 55 55 55 56 56 56 56 56 56 56 56 56 57 57 56 55 53 52 51 49 48 47 46 45 46 47 47 48 48 48 49 50 51
41 42 43 44 44 44 45 45 46 48 49 50 51 51 52 52 53 53 54 55 56 56 57 58 58 58 58 58 58 57 57 57 57 57 58 58 58 58 58 57 57 58 58 58 57 56 54 53 51 49 47 47 46 46 46 47 48 48 49 49 50 51 51
42 41 42 43 44 44 43 43 44 45 47 48 48 49 50 50 51 51 52 53 54 56 57 58 59 60 60 60 60 59 58 58 58 59 59 59 59 59 59 59 59 59 59 59 58 56 54 52 50 48 47 47 47 47 47 48 48 48 49 50 51 51 52
42 42 42 43 44 44 43 43 44 44 45 46 47 48 48 48 49 49 49 50 51 53 55 57 59 61 62 61 61 59 59 59 59 59 59 59 59 59 59 59 59 60 59 58 57 55 53 51 49 48 48 47 48 48 48 49 49 49 50 51 51 52 53
44 43 43 44 45 45 45 45 45 46 46 47 48 48 49 49 50 50 50 50 51 52 53 55 57 59 60 60 59 59 58 59 59 59 59 59 58 59 59 59 59 58 58 56 55 53 51 50 49 48 48 48 48 48 48 49 50 50 50 51 52 53 53
46 46 46 46 47 48 48 48 49 49 49 50 51 51 52 52 53 53 53 53 53 54 55 56 56 57 58 57 57 57 58 58 58 58 58 58 58 58 58 57 57 56 55 53 52 51 50 49 49 48 48 48 48 49 49 50 51 51 51 52 53 53 53
47 47 47 47 49 49 50 50 51 51 52 52 53 53 54 55 55 55 56 56 56 56 57 57 57 57 56 55 56 57 58 59 59 59 58 58 57 56 56 55 55 54 53 52 51 50 49 49 49 49 49 48 48 49 50 50 51 51 52 53 53 53 52
46 47 47 47 48 49 50 51 51 52 52 53 54 54 55 56 56 57 57 57 57 58 58 57 57 56 55 55 56 57 58 59 59 58 58 57 56 55 55 54 54 53 52 51 50 49 49 49 49 48 49 48 48 49 50 51 51 51 52 52 53 53 51
46 47 47 48 49 50 51 51 52 53 53 54 54 55 55 56 56 57 57 57 57 57 57 57 56 55 55 56 57 57 58 58 58 58 56 55 54 53 53 53 53 52 52 51 50 49 48 49 49 48 49 49 49 50 50 51 51 51 52 52 53 52 50
48 49 50 51 51 52 53 53 53 54 54 54 54 54 55 55 56 56 56 56 56 56 55 55 55 55 56 56 56 57 57 57 57 56 54 52 52 52 52 52 52 52 51 51 50 49 48 48 48 48 49 49 50 50 50 51 51 51 52 53 52 51 49
51 52 53 54 54 55 55 55 55 54 54 54 54 54 54 54 54 54 54 54 54 53 53 53 54 55 56 55 55 55 56 56 56 54 52 51 51 51 51 51 51 51 51 50 49 48 47 47 48 49 49 50 50 50 50 50 51 52 52 52 51 49 48
55 55 55 56 56 56 56 55 55 54 53 53 52 52 53 53 52 52 51 51 51 51 51 51 52 54 54 54 54 54 55 54 53 51 50 50 51 51 51 51 51 50 49 49 48 47 47 48 49 49 49 50 50 50 50 50 51 52 51 50 49 48 46
56 56 56 56 55 56 55 54 53 52 51 51 50 49 51 52 51 49 48 48 48 48 49 50 52 53 54 54 53 53 53 52 51 50 50 51 51 51 51 51 50 50 49 48 47 47 47 48 49 50 50 50 50 50 49 50 51 51 49 48 47 47 46
55 55 54 54 53 53 53 52 51 50 49 48 47 46 48 50 49 47 45 45 45 46 48 50 51 52 53 52 52 51 51 50 50 50 51 51 50 50 51 50 49 48 47 47 48 48 48 48 49 50 50 50 50 50 49 49 50 49 47 46 47 46 45
53 52 51 51 50 50 49 49 48 47 46 46 44 43 44 45 45 44 43 43 43 45 46 48 49 49 49 49 49 49 49 50 51 51 51 50 50 50 50 49 47 46 46 47 48 48 48 49 49 50 50 50 49 48 48 48 49 47 46 46 46 45 45
49 48 48 47 47 46 46 46 45 44 43 43 42 42 42 43 43 43 43 42 42 43 44 44 45 45 45 46 47 48 49 50 51 51 51 50 50 50 50 48 47 46 46 47 47 48 48 49 49 50 50 49 48 47 46 46 47 46 46 45 45 45 46
47 46 46 45 45 44 44 44 43 42 42 41 41 40 40 41 42 43 42 42 41 41 41 41 41 42 43 45 46 48 49 50 51 51 49 48 49 51 51 49 48 47 47 46 46 47 48 48 49 49 49 48 47 46 45 45 44 44 44 44 44 44 45
47 46 46 46 45 44 44 43 43 42 41 41 40 39 38 40 41 42 42 42 41 41 41 41 41 42 43 45 47 48 49 50 49 48 47 48 49 50 50 50 49 48 47 47 46 46 47 47 47 48 48 47 46 45 44 43 42 42 42 43 44 44 45
47 47 47 46 46 45 44 43 42 42 41 40 39 38 38 38 39 40 41 42 42 42 43 43 43 44 45 47 48 48 48 48 47 46 46 47 48 49 50 50 50 49 49 48 47 47 46 46 45 46 46 46 45 44 43 41 40 40 41 42 43 43 44
47 47 46 46 46 46 45 43 42 41 41 40 38 38 37 37 38 39 41 42 44 44 45 45 45 46 46 47 47 47 46 46 47 46 46 46 46 47 49 50 50 50 50 49 48 47 46 45 43 43 44 45 44 43 40 38 39 40 41 41 41 42 42
46 46 46 45 45 45 44 43 42 40 39 39 38 37 36 36 37 40 41 43 44 45 45 45 45 45 46 46 46 46 46 47 47 46 45 44 45 47 47 48 49 49 50 50 49 48 47 45 43 41 41 42 42 41 39 37 38 39 40 40 40 40 41
45 44 44 44 44 43 42 42 41 39 38 37 37 36 36 36 37 40 41 42 43 43 43 43 44 44 45 46 47 47 47 48 48 47 45 44 45 46 47 47 47 47 48 48 48 47 46 45 43 41 40 39 39 38 37 36 37 38 38 38 39 40 40
44 43 42 42 42 42 41 40 40 38 36 36 36 36 36 37 37 38 40 41 42 43 43 43 44 45 46 47 47 48 48 48 48 48 46 45 45 46 46 46 46 45 45 46 45 45 44 42 41 40 39 38 36 36 35 36 36 36 37 37 38 39 38
42 43 42 41 40 40 40 40 39 38 36 35 35 36 37 38 38 38 39 40 41 43 44 44 45 46 47 48 48 48 48 48 49 49 48 46 45 44 43 44 44 43 43 43 42 41 41 40 39 39 37 35 33 34 34 35 35 35 36 36 37 38 37
40 40 40 40 39 39 38 38 37 37 35 34 34 35 37 38 38 39 39 40 40 41 43 45 46 47 47 47 47 47 47 46 47 47 46 45 43 41 40 40 41 41 40 40 39 39 39 38 37 37 35 33 32 32 33 34 34 34 35 35 36 36 36
38 38 37 38 38 38 37 36 36 36 35 34 33 33 35 36 37 38 38 39 40 41 42 44 45 46 46 46 46 45 45 44 43 42 42 41 40 38 37 36 37 38 38 37 36 36 37 36 35 34 34 33 32 32 32 33 33 33 34 34 35 35 35
36 36 35 35 36 36 36 35 34 34 35 34 33 32 33 34 35 36 37 38 39 40 41 42 43 43 43 42 42 42 41 40 39 38 38 38 37 37 36 34 35 36 36 35 35 35 35 34 33 33 33 31 31 31 31 32 32 32 32 33 34 34 33
33 34 34 34 34 34 34 34 33 33 33 34 34 33 33 33 34 35 35 36 37 38 39 40 40 40 39 39 39 39 39 38 37 36 35 35 36 35 35 34 33 33 34 34 33 33 33 32 32 32 31 30 30 30 31 31 31 31 32 32 32 32 30
32 32 32 32 32 33 33 33 33 32 32 33 34 35 34 33 33 34 35 35 36 37 38 38 38 38 38 38 37 37 37 37 36 35 34 34 34 34 33 32 32 32 32 33 32 32 31 31 30 30 29 29 30 30 29 30 30 30 30 31 30 29 29
32 32 32 32 31 32 32 32 33 33 33 33 34 34 35 35 34 34 35 36 36 37 37 38 38 37 37 36 36 36 36 35 34 34 33 34 33 33 32 31 31 31 31 31 31 30 30 29 28 28 28 28 29 29 28 29 29 29 29 29 28 27 27
32 32 32 32 32 32 32 32 33 34 34 35 35 35 35 35 35 36 37 38 38 37 36 36 36 36 36 35 35 35 35 34 33 32 32 33 33 32 31 30 29 29 29 29 29 29 29 27 26 26 27 27 28 28 28 27 27 28 28 27 26 26 25
32 32 32 32 32 32 32 33 34 34 35 36 37 37 37 37 37 37 37 38 39 39 37 36 36 35 35 35 34 34 34 33 33 32 31 31 31 31 31 29 27 26 26 27 28 28 27 26 25 25 25 26 27 27 27 26 26 27 26 26 26 25 24
33 32 33 33 33 33 33 33 34 34 35 36 36 37 38 39 39 39 38 37 37 37 37 37 36 35 35 35 34 34 33 32 32 31 31 30 30 30 30 30 27 25 25 26 27 27 26 25 24 24 24 25 26 26 26 25 25 25 25 25 25 24 23
Wind_Direction
274 274 274 272 271 270 271 271 271 271 271 270 270 269 269 268 268 268 268 268 268 269 269 270 270 270 270 270 271 272 273 274 274 275 275 275 275 275 276 276 276 278 278 279 280 281 283 284 286 288 290 290 290 290 290 291 293 293 293 293 293 292 290
276 275 275 274 272 271 269 269 270 271 272 272 272 272 272 271 271 271 270 270 270 270 271 271 271 271 271 271 271 272 272 273 274 274 274 274 274 274 275 275 275 276 277 278 278 279 281 282 284 286 287 287 288 288 289 291 291 292 292 293 292 291 289
277 277 276 276 275 274 273 271 270 270 271 271 272 273 274 273 273 272 272 272 271 271 271 271 271 271 271 272 272 271 272 273 273 274 274 274 274 274 274 274 275 276 276 277 278 279 280 282 283 284 285 285 286 287 287 288 289 290 291 291 291 290 288
277 277 277 276 276 276 275 274 273 272 272 272 272 272 273 273 273 273 273 273 273 272 271 271 271 271 271 271 271 271 272 272 273 273 274 274 274 273 274 274 274 275 276 277 277 278 280 282 282 283 284 284 285 285 286 287 288 288 289 289 289 288 287
276 276 276 276 276 276 275 275 274 274 273 273 273 273 273 273 273 273 273 273 273 273 272 271 271 270 270 270 270 271 271 272 272 273 273 273 274 274 274 274 274 275 276 276 277 278 280 281 282 282 283 283 284 284 285 286 287 287 288 288 287 287 286
275 275 275 275 275 275 275 275 275 274 274 274 274 274 274 274 274 274 274 273 273 273 272 272 271 270 269 269 269 269 270 270 271 272 272 273 274 274 274 275 275 275 275 276 277 278 279 280 280 281 281 282 283 284 285 286 286 286 286 286 286 285 285
273 273 273 273 273 274 274 274 274 274 274 275 275 275 276 276 276 276 275 275 274 273 272 272 271 270 269 268 268 268 269 269 270 271 272 272 273 274 274 274 274 274 274 275 276 277 278 278 278 279 280 281 283 284 286 286 286 286 286 285 285 284 283
271 271 271 272 272 273 273 274 274 274 274 275 275 275 276 276 276 276 276 276 275 274 273 272 271 270 269 268 268 268 268 269 270 271 271 272 272 272 272 272 272 273 273 274 274 275 276 277 277 279 280 281 283 284 285 285 285 285 285 284 283 283 282
273 272 272 272 273 273 274 274 274 275 275 275 275 275 275 275 275 275 275 274 274 274 273 273 273 272 270 269 269 269 269 269 270 270 271 271 271 271 271 271 271 271 271 272 274 275 276 277 278 279 280 281 283 284 284 283 284 284 284 283 282 282 282
275 275 275 274 274 275 275 275 275 275 275 275 275 275 275 275 275 274 274 274 273 273 273 273 272 271 270 268 267 267 268 269 269 270 270 270 270 270 270 270 270 270 272 273 275 277 277 278 279 280 280 281 283 283 283 283 283 283 282 282 281 281 281
277 277 277 276 276 276 276 276 276 276 276 275 275 275 275 274 274 274 273 273 273 272 272 271 270 269 267 265 265 266 267 268 268 269 269 269 269 269 269 270 271 272 273 275 276 278 278 279 280 280 281 282 282 282 282 282 282 282 281 281 280 280 281
278 278 278 278 278 278 278 278 278 277 277 277 276 276 275 275 274 274 273 273 272 272 271 270 269 266 264 263 264 265 266 267 268 268 269 269 269 270 270 271 272 273 275 276 277 278 278 279 280 280 281 282 282 282 282 282 282 281 281 280 279 280 281
280 280 279 279 279 279 279 278 278 278 277 277 277 276 275 275 274 274 274 273 273 272 271 270 268 266 265 264 264 265 265 266 267 268 269 269 270 270 271 273 274 275 276 276 277 277 278 279 279 280 281 281 281 281 281 281 281 280 280 279 280 282 282
281 281 281 280 280 279 279 279 278 278 278 277 277 276 276 275 275 275 274 274 273 273 271 270 268 267 266 264 263 263 265 266 267 268 269 269 270 271 272 274 276 277 277 276 276 277 278 279 279 280 280 280 280 280 280 280 280 279 279 280 281 282 283
281 281 281 281 280 280 280 279 279 279 279 278 278 278 277 276 276 275 275 274 274 272 271 269 268 267 265 262 262 262 264 265 267 268 269 269 270 272 274 275 276 276 276 276 277 278 279 279 280 280 279 279 279 279 280 279 279 278 279 281 281 282 281
281 281 280 280 280 280 280 280 280 280 280 280 280 279 278 277 277 276 275 275 273 272 270 268 267 265 262 261 261 262 263 265 267 268 269 270 272 274 275 276 276 275 276 277 278 279 279 280 280 280 280 279 278 278 279 278 278 278 280 281 281 280 280
281 281 280 280 280 280 280 280 280 280 280 279 279 278 277 277 277 275 274 273 271 269 267 266 264 262 261 260 261 262 264 266 267 268 269 272 274 275 275 275 275 275 277 278 279 279 279 279 279 279 279 278 278 278 278 277 278 279 280 280 280 280 280
281 280 280 280 279 279 279 279 279 279 279 278 277 276 275 275 275 273 271 269 267 266 265 264 262 261 261 261 262 263 265 266 267 268 270 273 274 273 272 272 272 274 276 277 278 279 279 279 278 278 277 277 277 278 278 278 279 280 280 280 280 281 280
281 280 280 279 279 279 279 278 278 278 278 277 277 275 274 273 273 272 270 269 267 266 265 263 262 261 261 261 262 264 265 267 269 270 272 273 272 271 271 272 272 272 273 274 276 277 277 277 277 277 277 277 277 277 277 278 279 280 281 281 280 280 279
281 281 280 280 279 279 278 278 278 277 277 277 276 275 273 272 272 271 270 269 267 266 264 263 261 261 260 261 262 264 266 268 270 271 272 272 271 272 273 274 274 274 273 273 274 274 275 275 275 275 276 277 277 277 277 277 277 278 279 279 278 278 278
282 282 281 280 280 279 278 278 277 276 276 276 275 274 273 272 271 271 270 269 267 265 264 262 261 261 261 262 263 265 267 269 270 271 271 271 272 273 274 275 275 276 276 275 274 273 273 273 274 275 276 276 276 276 275 275 275 275 275 274 275 275 276
283 282 281 281 280 279 278 277 276 276 275 274 274 273 272 270 270 269 269 268 267 266 265 264 263 263 263 264 265 266 267 268 269 270 271 272 273 275 276 277 277 277 277 276 276 274 273 273 273 274 275 275 274 274 273 274 274 272 271 271 272 273 275
282 282 281 280 280 279 278 277 276 275 274 273 272 271 269 267 265 265 266 266 266 266 265 265 266 266 266 267 267 267 267 267 268 269 270 271 272 274 275 276 278 278 278 277 277 276 275 274 273 273 273 273 273 273 274 273 271 270 269 270 271 272 274
282 281 281 279 279 278 278 277 276 274 273 272 270 269 267 265 262 261 263 264 265 266 267 268 269 269 269 269 269 269 269 269 269 270 271 273 273 274 274 276 277 279 279 279 278 277 276 275 274 272 271 271 271 272 271 270 267 267 268 269 270 271 273
283 282 282 281 279 278 277 276 275 274 272 271 270 268 267 265 263 262 264 264 265 266 267 268 269 269 269 269 270 270 271 272 274 275 275 275 275 275 275 276 276 276 277 278 278 278 278 277 276 274 271 270 270 270 268 266 265 265 266 267 268 270 272
284 283 282 282 281 280 279 277 276 274 273 271 269 268 267 265 264 264 265 265 266 266 266 266 266 267 267 268 269 271 273 275 276 276 276 276 276 276 277 276 275 275 275 275 277 277 278 278 277 275 273 272 271 271 268 265 264 264 264 265 267 268 271
284 283 283 282 281 281 280 279 278 276 274 271 269 267 266 265 264 263 264 265 266 267 267 267 267 267 268 269 271 273 274 276 277 278 278 278 277 277 276 276 275 274 274 274 274 274 274 274 273 273 273 273 271 269 267 266 266 265 265 266 268 269 272
282 283 283 282 281 280 279 279 279 278 275 272 270 268 266 265 265 264 264 265 265 265 266 267 268 269 271 272 273 274 275 276 277 278 279 278 278 276 275 274 274 273 273 272 272 271 270 270 271 271 272 271 268 265 265 266 266 266 267 268 270 272 273
282 282 282 282 282 281 280 279 279 278 276 274 271 269 267 266 266 265 265 264 264 264 265 266 267 269 271 272 274 275 275 276 276 277 277 277 277 276 274 273 271 272 272 271 270 269 269 269 269 269 269 268 266 265 264 265 265 267 268 270 271 272 273
282 282 281 281 281 282 282 281 280 279 278 276 274 272 270 268 267 267 266 265 265 265 265 266 267 269 270 272 273 274 275 275 275 275 275 275 275 275 274 272 269 269 270 270 268 267 267 267 267 267 267 267 266 265 264 265 266 267 269 270 270 272 273
280 281 281 280 280 280 281 281 281 280 280 279 277 275 274 272 270 269 268 267 267 267 267 268 269 270 271 272 273 274 274 275 275 275 274 273 273 273 272 270 269 267 268 267 266 265 265 265 265 265 266 265 264 263 264 265 266 267 268 269 270 271 273
279 278 278 279 279 279 280 280 280 280 280 280 279 278 277 275 274 272 270 269 268 269 270 270 271 272 273 273 274 274 274 274 274 274 273 272 272 272 271 269 267 265 264 264 264 262 262 263 263 263 263 262 262 263 263 264 265 266 267 268 270 272 274
279 278 277 277 278 278 279 279 279 279 278 278 278 279 279 278 277 275 273 271 270 271 271 272 273 274 274 274 275 274 274 273 273 273 272 271 270 270 269 268 266 264 263 263 262 262 261 261 261 261 261 260 261 263 263 264 266 267 268 270 271 272 274
277 277 277 276 276 277 277 277 278 278 278 277 277 276 277 277 276 275 274 274 274 273 273 273 274 274 275 275 275 274 274 274 273 272 271 270 270 270 269 266 265 264 264 263 262 261 260 260 260 259 259 260 261 263 264 266 267 269 270 272 272 273 273
274 274 275 275 275 275 275 275 276 276 277 277 277 277 276 275 274 274 274 275 276 277 276 274 274 275 275 276 275 275 275 274 273 272 270 270 270 269 269 266 263 260 260 261 261 260 260 259 258 257 258 260 261 262 264 266 268 270 272 273 274 274 275
276 275 275 275 276 276 275 275 275 275 275 275 276 276 276 276 275 275 274 273 274 275 275 275 274 274 274 274 274 274 274 273 272 271 270 268 268 267 267 267 264 259 255 255 257 259 259 258 257 256 257 259 261 263 265 266 268 270 272 273 275 275 276